Regional Weather Roundup
Issued by NWS Mobile, AL

Home | Current Version | Previous Version | Text Only | Print | Product List | Glossary On
Versions: 1 2 3 4 5 6 7 8 9 10 11 12 13 14 15 16 17 18 19 20 21 22 23 24 25 26 27 28 29 30 31 32 33 34 35 36 37 38 39 40 41 42 43 44 45 46 47 48 49 50
000
ASUS44 KMOB 140012
RWRMOB
REGIONAL WEATHER ROUNDUP
NATIONAL WEATHER SERVICE MOBILE AL
600 PM CST SAT FEB 13 2016

NOTE: "FAIR" INDICATES FEW OR NO CLOUDS BELOW 12,000 FEET WITH NO
      SIGNIFICANT WEATHER AND/OR OBSTRUCTIONS TO VISIBILITY.

  * THESE STATIONS ARE PART OF THE UNIVERSITY OF SOUTH ALABAMA
    MESONET AND ARE NOT UNDER NWS OR FAA QUALITY CONTROL.

ALZ061>064-140100-
COASTAL ALABAMA

CITY           SKY/WX    TMP DP  RH WIND       PRES   REMARKS
MOBILE REG APT PTCLDY    51  24  34 N7        30.35R
6HR MIN TEMP:  51; 6HR MAX TEMP:  60;

BROOKLEY FIELD PTCLDY    54  24  31 N9        30.36R
6HR MIN TEMP:  54; 6HR MAX TEMP:  58;

USA CAMPUS*    NOT AVBL
DOG RIVER*     NOT AVBL


CITY           SKY/WX    TMP DP  RH WIND       PRES   REMARKS
MOUNT VERNON*  NOT AVBL
SARALAND*      NOT AVBL
BAY MINETTE*   NOT AVBL
LOXLEY*        NOT AVBL
ROBERTSDALE*   NOT AVBL
FAIRHOPE*      NOT AVBL
ELBERTA*       NOT AVBL
FOLEY*         NOT AVBL
GRAND BAY*     NOT AVBL
DAUPHIN ISLND* NOT AVBL
BON SCOUR NWR* NOT AVBL
GULF SHORES    CLEAR     53  25  34 NE6       30.34R

$$

ALZ051>060-140100-
INTERIOR SOUTHWEST AND SOUTH CENTRAL ALABAMA

CITY           SKY/WX    TMP DP  RH WIND       PRES   REMARKS
GREENVILLE     CLEAR     48   8  19 NW6       30.37R
6HR MIN TEMP:  48; 6HR MAX TEMP:  53;

EVERGREEN      CLEAR     49  17  28 NW3       30.37R
6HR MIN TEMP:  49; 6HR MAX TEMP:  56;

CASTLEBERRY*   NOT AVBL
ATMORE*        NOT AVBL
DIXIE*         NOT AVBL
ANDALUSIA/OPP  CLEAR     51  18  27 NE5       30.35R
6HR MIN TEMP:  51; 6HR MAX TEMP:  60;

ANDALUSIA*     NOT AVBL
FLORALA APT    NOT AVBL
FLORALA*       NOT AVBL

$$

FLZ001>006-140100-
WESTERN FLORIDA PANHANDLE

CITY           SKY/WX    TMP DP  RH WIND       PRES   REMARKS
PENSACOLA      CLEAR     54  20  26 N7        30.34R
6HR MIN TEMP:  54; 6HR MAX TEMP:  62;

NAS PENSACOLA  CLEAR     52  22  30 N6        30.33S
6HR MIN TEMP:  52; 6HR MAX TEMP:  62;

MILTON         CLEAR     50  20  30 N5        30.35R
6HR MIN TEMP:  50; 6HR MAX TEMP:  60; 6HR PCP: TRACE;

WHTNG S FIELD  CLEAR     53  20  27 N8        30.35R
6HR MIN TEMP:  53; 6HR MAX TEMP:  63;



CITY           SKY/WX    TMP DP  RH WIND       PRES   REMARKS
WALNUT HILL*   NOT AVBL
JAY*           NOT AVBL
DUKE FIELD     CLEAR     50  15  25 NE6       30.33R
CRESTVIEW      CLEAR     50  19  29 N3        30.36R
6HR MIN TEMP:  50; 6HR MAX TEMP:  60;

VALPARAISO     PTCLDY    53  18  24 N7        30.32R
6HR MIN TEMP:  53; 6HR MAX TEMP:  62;

DESTIN         CLEAR     56  22  26 N8        30.34R
6HR MIN TEMP:  56; 6HR MAX TEMP:  62;


$$

MSZ076-079-140100-
INTERIOR SOUTHEAST MISSISSIPPI

CITY           SKY/WX    TMP DP  RH WIND       PRES   REMARKS
LEAKESVILLE*   NOT AVBL
AGRICOLA*      NOT AVBL

$$

MARINE OBSERVATIONS

STATION/POSITION TIME  TEMP    WIND        PRES    WAVE
                       AIR SEA DIR/SP/G            HT/PER
                 (UTC) (F)     (DEG/KT/KT) (MB)    (FT/S)
PASCAGOULA       2300   59                 1026.9F
PETIT BOIS ISLND 2300   57                 1027.7F
GRAND BAY        2245   58      20/  4     1028.0S
KATRINA CUT      2300   56      50/ 10       N/A
CEDAR POINT      2300   56      40/ 10     1026.8S
E DAUPHIN ISLAND 2300   55      20/  9/ 11 1027.0R
MIDDLE BAY LIGHT 2300           10/ 14     1026.8S
USCG MOBILE BAY  2300   56 54              1028.0R
STATE DOCKS      2300   56 53              1027.3R
MEAHER PARK      2300   56     330/  7     1027.4R
WEEKS BAY        2245   56                   N/A
FORT MORGAN      2300   56                 1026.6R
12 S ORANGE BCH  2350   58 65  350/  2/  4 1026.5S   1/ 4
PENSACOLA BAY    2300   62 53              1027.2R

$$

SELECTED LOCATIONS ACROSS THE REGION

CITY           SKY/WX    TMP DP  RH WIND       PRES   REMARKS
NEW ORLEANS    PTCLDY    59  31  34 E3        30.33S
GULFPORT       CLEAR     57  30  35 N5        30.33S
PASCAGOULA AP  PTCLDY    51  31  46 N6        30.34S
PASCAGOULA*    NOT AVBL
HATTIESBURG    PTCLDY    52  22  30 NE5       30.36S
LAUREL         PTCLDY    46  23  39 N3        30.37S
MERIDIAN       PTCLDY    45  13  27 NE10      30.39S
JACKSON        CLEAR     47  19  33 N6        30.36F
MONTGOMERY     CLEAR     45  13  27 N6        30.39R
TROY           CLEAR     45  16  31 NW6       30.37R
KINSTON*       NOT AVBL
GENEVA*        NOT AVBL
ASHFORD*       NOT AVBL
DOTHAN         CLEAR     48  16  27 N7        30.36R
PANAMA CITY    CLEAR     49  30  48 NW6       30.32R

$$




USA.gov is the U.S. government's official web portal to all federal, state and local government web resources and services.